Location: Newark
(34.6283°N, 36.0776°E)
Time: 05:39:16
(UTC+00:00)

Tiros 1 - Pass Details

Date: 26 October 2019
Orbit: 630 x 664 km, 48.4° (Epoch: 21 November)

Event Time Altitude Azimuth Distance (km) Brightness Sun altitude
Exits shadow 01:06:18 17° 34° (NNE) 1,666 9.6 -34.3°
Drops below altitude 10° 01:08:24 10° 58° (ENE) 2,080 10.4 -33.8°
Sets 01:11:24 0° 77° (ENE) 2,992 11.7 -33.2°
